Rockwood, MI

7:42 AM EST on February 20, 2017 (GMT -0500)
Grosse Ile Municipal

Weather History for KONZ - July, 2014

Change the Weather History Date:

Thursday, July 3, 2014

  Actual Average (KDTW) Record (KDTW)
Temperature  
Mean Temperature 68 °F -  
Max Temperature 73 °F 81 °F 100 °F (1911)
Min Temperature 62 °F 60 °F 48 °F (1971)
Cooling Degree Days 2    
Growing Degree Days 18 (Base 50)    
Moisture  
Dew Point 55 °F    
Average Humidity 69    
Maximum Humidity 88    
Minimum Humidity 38    
Precipitation  
Precipitation 0.00 in - - ()
Sea Level Pressure  
Sea Level Pressure 30.01 in    
Wind  
Wind Speed 5 mph (NW)    
Max Wind Speed 16 mph    
Max Gust Speed 21 mph    
Visibility 10 miles    
Events      
Averages and records for this station are not official NWS values.
T = Trace of Precipitation, MM = Missing Value Source: NWS Daily Summary

Daily Weather History Graph

Daily Weather History Graph

Search for Another Location

Airport or City:

Trip Planner

Search our weather history database for the weather conditions in past years. The results will help you decide how hot, cold, wet, or windy it might be!

Date:

Astronomy

Jul. 03, 2014 Rise Set
Actual Time 6:01 AM EDT 9:11 PM EDT
Civil Twilight 5:27 AM EDT 9:46 PM EDT
Nautical Twilight 4:43 AM EDT 10:30 PM EDT
Astronomical Twilight 3:50 AM EDT 11:22 PM EDT
Moon 12:06 PM EDT (7/3) No Moon Set
Length of Visible Light 16h 18m
Length of Day
15h 10m
Waxing Crescent, 33% of the Moon is Illuminated
Jul 3
Waxing Crescent
Jul 5
First Quarter
Jul 12
Full
Jul 18
Last Quarter
Jul 26
New

Hourly Weather History & Observations

Time (EDT) Temp. Dew Point Humidity Pressure Visibility Wind Dir Wind Speed Gust Speed Precip Events Conditions
12:14 AM 66.2 °F 57.2 °F 73% 29.94 in 10.0 mi Calm Calm - N/A   Scattered Clouds
12:34 AM 66.2 °F 57.2 °F 73% 29.94 in 10.0 mi Calm Calm - N/A   Scattered Clouds
12:54 AM 66.2 °F 57.2 °F 73% 29.94 in 10.0 mi WNW 3.5 mph - N/A   Scattered Clouds
1:15 AM 66.2 °F 57.2 °F 73% 29.94 in 10.0 mi West 4.6 mph - N/A   Clear
1:34 AM 66.2 °F 57.2 °F 73% 29.94 in 10.0 mi West 5.8 mph - N/A   Clear
1:54 AM 64.4 °F 57.2 °F 77% 29.94 in 10.0 mi West 4.6 mph - N/A   Clear
2:14 AM 64.4 °F 57.2 °F 77% 29.94 in 10.0 mi West 3.5 mph - N/A   Clear
2:34 AM 64.4 °F 57.2 °F 77% 29.94 in 10.0 mi WSW 3.5 mph - N/A   Clear
2:54 AM 64.4 °F 57.2 °F 77% 29.94 in 10.0 mi West 4.6 mph - N/A   Scattered Clouds
3:14 AM 64.4 °F 57.2 °F 77% 29.94 in 10.0 mi West 4.6 mph - N/A   Mostly Cloudy
3:34 AM 64.4 °F 57.2 °F 77% 29.94 in 10.0 mi Calm Calm - N/A   Overcast
3:54 AM 64.4 °F 57.2 °F 77% 29.94 in 10.0 mi West 3.5 mph - N/A   Overcast
4:14 AM 64.4 °F 57.2 °F 77% 29.93 in 10.0 mi Calm Calm - N/A   Mostly Cloudy
4:35 AM 64.4 °F 57.2 °F 77% 29.93 in 10.0 mi Calm Calm - N/A   Overcast
4:54 AM 64.4 °F 59.0 °F 83% 29.92 in 10.0 mi Calm Calm - N/A   Mostly Cloudy
5:14 AM 64.4 °F 59.0 °F 83% 29.92 in 10.0 mi Calm Calm - N/A   Overcast
5:35 AM 62.6 °F 57.2 °F 82% 29.92 in 10.0 mi Calm Calm - N/A   Overcast
5:54 AM 64.4 °F 59.0 °F 83% 29.92 in 10.0 mi West 4.6 mph - N/A   Overcast
6:14 AM 64.4 °F 59.0 °F 83% 29.93 in 10.0 mi West 5.8 mph - N/A   Overcast
6:34 AM 64.4 °F 59.0 °F 83% 29.93 in 10.0 mi WNW 5.8 mph - N/A   Overcast
6:54 AM 64.4 °F 59.0 °F 83% 29.94 in 10.0 mi West 4.6 mph - N/A   Overcast
7:14 AM 64.4 °F 59.0 °F 83% 29.94 in 10.0 mi West 5.8 mph - N/A   Overcast
7:34 AM 64.4 °F 59.0 °F 83% 29.94 in 10.0 mi West 5.8 mph - N/A   Overcast
7:54 AM 64.4 °F 59.0 °F 83% 29.95 in 10.0 mi West 6.9 mph - N/A   Overcast
8:14 AM 64.4 °F 59.0 °F 83% 29.96 in 10.0 mi SW 5.8 mph - N/A   Overcast
8:34 AM 64.4 °F 60.8 °F 88% 29.96 in 10.0 mi West 8.1 mph - N/A   Overcast
8:54 AM 64.4 °F 60.8 °F 88% 29.97 in 10.0 mi WSW 10.4 mph - N/A   Overcast
9:15 AM 64.4 °F 59.0 °F 83% 29.97 in 10.0 mi West 9.2 mph - N/A   Overcast
9:54 AM 64.4 °F 59.0 °F 83% 29.97 in 10.0 mi WSW 10.4 mph - N/A   Overcast
10:15 AM 66.2 °F 59.0 °F 78% 29.97 in 10.0 mi WSW 9.2 mph - N/A   Mostly Cloudy
10:34 AM 66.2 °F 59.0 °F 78% 29.97 in 10.0 mi WSW 6.9 mph - N/A   Overcast
10:54 AM 66.2 °F 59.0 °F 78% 29.98 in 10.0 mi West 8.1 mph - N/A   Overcast
11:15 AM 64.4 °F 57.2 °F 77% 29.99 in 10.0 mi NW 9.2 mph - N/A   Overcast
11:34 AM 62.6 °F 57.2 °F 82% 30.00 in 10.0 mi West 10.4 mph - N/A   Overcast
11:54 AM 62.6 °F 55.4 °F 77% 30.01 in 10.0 mi WNW 11.5 mph - N/A   Overcast
12:14 PM 62.6 °F 55.4 °F 77% 30.01 in 10.0 mi NW 10.4 mph - N/A   Overcast
12:34 PM 62.6 °F 55.4 °F 77% 30.02 in 10.0 mi NW 11.5 mph - N/A   Overcast
12:54 PM 62.6 °F 55.4 °F 77% 30.03 in 10.0 mi NW 10.4 mph - N/A   Overcast
1:14 PM 62.6 °F 55.4 °F 77% 30.04 in 10.0 mi NW 12.7 mph - N/A   Overcast
1:34 PM 62.6 °F 53.6 °F 72% 30.05 in 10.0 mi NW 10.4 mph - N/A   Overcast
1:54 PM 62.6 °F 53.6 °F 72% 30.05 in 10.0 mi NNW 10.4 mph - N/A   Overcast
2:14 PM 62.6 °F 55.4 °F 77% 30.05 in 10.0 mi WNW 9.2 mph - N/A   Overcast
2:34 PM 62.6 °F 55.4 °F 77% 30.05 in 10.0 mi NW 10.4 mph - N/A   Overcast
2:55 PM 64.4 °F 55.4 °F 73% 30.05 in 10.0 mi NW 10.4 mph 18.4 mph N/A   Mostly Cloudy
3:14 PM 66.2 °F 55.4 °F 68% 30.05 in 10.0 mi NW 12.7 mph 16.1 mph N/A   Mostly Cloudy
3:34 PM 68.0 °F 55.4 °F 64% 30.05 in 10.0 mi NW 9.2 mph - N/A   Mostly Cloudy
3:55 PM 69.8 °F 53.6 °F 56% 30.05 in 10.0 mi WNW 8.1 mph 17.3 mph N/A   Scattered Clouds
4:14 PM 71.6 °F 44.6 °F 38% 30.05 in 10.0 mi NNW 11.5 mph 20.7 mph N/A   Scattered Clouds
4:34 PM 71.6 °F 46.4 °F 41% 30.05 in 10.0 mi NW 16.1 mph 19.6 mph N/A   Scattered Clouds
4:54 PM 71.6 °F 46.4 °F 41% 30.05 in 10.0 mi NNW 9.2 mph - N/A   Scattered Clouds
5:14 PM 71.6 °F 46.4 °F 41% 30.05 in 10.0 mi NW 6.9 mph - N/A   Clear
5:35 PM 71.6 °F 48.2 °F 43% 30.05 in 10.0 mi NW 10.4 mph 18.4 mph N/A   Clear
5:54 PM 73.4 °F 48.2 °F 41% 30.05 in 10.0 mi NNW 12.7 mph 17.3 mph N/A   Clear
6:14 PM 73.4 °F 50.0 °F 44% 30.05 in 10.0 mi NNW 11.5 mph - N/A   Scattered Clouds
6:34 PM 73.4 °F 50.0 °F 44% 30.05 in 10.0 mi North 9.2 mph - N/A   Mostly Cloudy
6:54 PM 73.4 °F 50.0 °F 44% 30.05 in 10.0 mi NNW 11.5 mph - N/A   Scattered Clouds
7:14 PM 73.4 °F 50.0 °F 44% 30.06 in 10.0 mi North 8.1 mph - N/A   Scattered Clouds
7:34 PM 73.4 °F 50.0 °F 44% 30.06 in 10.0 mi NW 12.7 mph 17.3 mph N/A   Mostly Cloudy
7:54 PM 73.4 °F 51.8 °F 47% 30.07 in 10.0 mi NW 5.8 mph - N/A   Mostly Cloudy
8:14 PM 71.6 °F 50.0 °F 46% 30.07 in 10.0 mi NNW 5.8 mph 9.2 mph N/A   Scattered Clouds
8:34 PM 71.6 °F 50.0 °F 46% 30.08 in 10.0 mi NNW 6.9 mph - N/A   Clear
8:54 PM 69.8 °F 50.0 °F 49% 30.09 in 10.0 mi NNW 6.9 mph - N/A   Clear
9:15 PM 69.8 °F 51.8 °F 53% 30.09 in 10.0 mi North 3.5 mph - N/A   Clear
9:34 PM 69.8 °F 51.8 °F 53% 30.10 in 10.0 mi North 4.6 mph - N/A   Clear
9:54 PM 68.0 °F 51.8 °F 56% 30.11 in 10.0 mi NNE 5.8 mph - N/A   Clear
10:15 PM 66.2 °F 55.4 °F 68% 30.12 in 10.0 mi East 3.5 mph - N/A   Mostly Cloudy
10:34 PM 64.4 °F 57.2 °F 77% 30.13 in 10.0 mi ENE 4.6 mph - N/A   Overcast
10:54 PM 64.4 °F 57.2 °F 77% 30.13 in 10.0 mi East 5.8 mph - N/A   Mostly Cloudy
11:14 PM 64.4 °F 57.2 °F 77% 30.13 in 10.0 mi ENE 6.9 mph - N/A   Overcast
11:34 PM 62.6 °F 57.2 °F 82% 30.13 in 10.0 mi NE 4.6 mph - N/A   Scattered Clouds
11:54 PM 62.6 °F 57.2 °F 82% 30.13 in 10.0 mi NE 4.6 mph - N/A   Clear